Lake Mead Weather Center

Moon Phase Calendar



Lake Mead Water Level
Online Cameras

 


      

Current Conditions in Meadview
7/6/2022 7:02:36 AM

86°F
Feels Like 83
Clear
Humidity
18%
Pressure
29.85"
Wind
2.9 mph (SE)
Dew Point
38°F
UV Index
1/10 (Low)
Visibility
6 mi

Hourly Forecast

Date & Time Wed, Jul 6
7:00 AM
Wed, Jul 6
8:00 AM
Wed, Jul 6
9:00 AM
Wed, Jul 6
10:00 AM
Wed, Jul 6
11:00 AM
Wed, Jul 6
12:00 PM
Wed, Jul 6
1:00 PM
Wed, Jul 6
2:00 PM
Wed, Jul 6
3:00 PM
Wed, Jul 6
4:00 PM
Wed, Jul 6
5:00 PM
Wed, Jul 6
6:00 PM
Wed, Jul 6
7:00 PM
Wed, Jul 6
8:00 PM
Wed, Jul 6
9:00 PM
Wed, Jul 6
10:00 PM
Wed, Jul 6
11:00 PM
Thu, Jul 7
12:00 AM
Thu, Jul 7
1:00 AM
Thu, Jul 7
2:00 AM
Thu, Jul 7
3:00 AM
Thu, Jul 7
4:00 AM
Thu, Jul 7
5:00 AM
Thu, Jul 7
6:00 AM
Thu, Jul 7
7:00 AM
Thu, Jul 7
8:00 AM
Thu, Jul 7
9:00 AM
Thu, Jul 7
10:00 AM
Thu, Jul 7
11:00 AM
Thu, Jul 7
12:00 PM
Thu, Jul 7
1:00 PM
Thu, Jul 7
2:00 PM
Thu, Jul 7
3:00 PM
Thu, Jul 7
4:00 PM
Thu, Jul 7
5:00 PM
Thu, Jul 7
6:00 PM
Thu, Jul 7
7:00 PM
Thu, Jul 7
8:00 PM
Thu, Jul 7
9:00 PM
Thu, Jul 7
10:00 PM
Thu, Jul 7
11:00 PM
Fri, Jul 8
12:00 AM
Fri, Jul 8
1:00 AM
Fri, Jul 8
2:00 AM
Fri, Jul 8
3:00 AM
Fri, Jul 8
4:00 AM
Fri, Jul 8
5:00 AM
Fri, Jul 8
6:00 AM
Condition
Clear

Clear

Clear

Clear

Clear

Clear

Clear

Clear

Clear

Clear

Clear

Clear

Clear

Clear

Clear

Clear

Clear

Clear

Clear

Clear

Clear

Clear

Clear

Clear

Clear

Clear

Clear

Clear

Clear

Clear

Clear

Clear

Clear

Clear

Clear

Clear

Clear

Clear

Clear

Clear

Clear

Clear

Clear

Clear

Clear

Clear

Clear

Clear
Temperature 86°F87°F89°F92°F96°F100°F102°F103°F104°F104°F102°F101°F98°F92°F89°F87°F86°F85°F84°F83°F82°F80°F80°F81°F87°F91°F94°F96°F99°F101°F103°F105°F106°F105°F105°F103°F101°F95°F92°F91°F89°F88°F87°F86°F85°F84°F83°F84°F
Feels Like 83°F83°F85°F88°F91°F96°F97°F98°F98°F97°F96°F95°F93°F88°F85°F84°F83°F82°F81°F80°F79°F79°F80°F79°F83°F87°F89°F92°F94°F96°F97°F99°F99°F99°F98°F97°F95°F90°F88°F86°F85°F84°F84°F82°F82°F81°F80°F81°F
Cloudiness 0%0%0%0%0%0%0%0%0%0%0%0%0%0%0%0%0%0%0%0%0%0%0%0%0%0%0%0%0%0%0%0%0%0%0%0%0%0%0%0%0%0%0%0%0%0%0%3%
Visibility 6 mi6 mi6 mi6 mi6 mi6 mi6 mi6 mi6 mi6 mi6 mi6 mi6 mi6 mi6 mi6 mi6 mi6 mi6 mi6 mi6 mi6 mi6 mi6 mi6 mi6 mi6 mi6 mi6 mi6 mi6 mi6 mi6 mi6 mi6 mi6 mi6 mi6 mi6 mi6 mi6 mi6 mi6 mi6 mi6 mi6 mi6 mi6 mi
Precipitation 0%0%0%0%0%0%0%0%0%0%0%0%0%0%0%0%0%0%0%0%0%0%0%0%0%0%0%0%0%0%0%0%0%0%0%0%0%0%0%0%0%0%0%0%0%0%0%0%
Humidity 18%17%16%16%15%14%12%10%9%7%6%7%8%10%12%12%13%13%13%13%14%14%15%15%12%10%11%11%10%9%8%7%7%7%7%7%8%10%11%12%14%15%15%16%17%18%19%19%
Dew Point 38°F37°F37°F39°F41°F39°F37°F35°F31°F26°F22°F22°F23°F25°F27°F27°F26°F25°F25°F24°F24°F25°F25°F26°F25°F25°F29°F31°F29°F30°F29°F28°F28°F27°F26°F26°F27°F28°F29°F29°F30°F31°F32°F32°F33°F33°F33°F34°F
Pressure 29.85"29.85"29.85"29.85"29.83"29.83"29.8"29.77"29.74"29.74"29.74"29.74"29.74"29.77"29.8"29.83"29.83"29.83"29.83"29.85"29.85"29.85"29.85"29.88"29.88"29.91"29.91"29.88"29.88"29.85"29.83"29.83"29.8"29.77"29.77"29.77"29.8"29.8"29.83"29.85"29.85"29.88"29.88"29.88"29.88"29.88"29.91"29.91"
Wind Speed 2.9 mph2.8 mph5.2 mph7.9 mph11 mph13.6 mph14.6 mph16.1 mph18 mph19 mph19.3 mph20.5 mph18.1 mph11.9 mph9.2 mph8.1 mph7.3 mph7.1 mph6.5 mph6 mph5.4 mph5 mph4.8 mph3.9 mph3.2 mph2.5 mph3.7 mph6.2 mph8.1 mph9.4 mph10.9 mph15.3 mph19.2 mph19.3 mph18.9 mph18.2 mph15.8 mph11 mph10.2 mph8.5 mph6.7 mph5.5 mph4.9 mph4 mph3.4 mph3.3 mph3 mph2.7 mph
Wind
Direction
138°
SE
158°
SSE
182°
S
183°
S
187°
S
190°
S
196°
SSW
194°
SSW
192°
SSW
198°
SSW
203°
SSW
208°
SSW
212°
SSW
209°
SSW
184°
S
160°
SSE
150°
SSE
147°
SSE
140°
SE
132°
SE
124°
SE
123°
ESE
124°
SE
127°
SE
125°
SE
134°
SE
171°
S
189°
S
194°
SSW
198°
SSW
201°
SSW
211°
SSW
217°
SW
216°
SW
214°
SW
212°
SSW
210°
SSW
198°
SSW
182°
S
166°
SSE
151°
SSE
139°
SE
139°
SE
132°
SE
130°
SE
137°
SE
143°
SE
109°
ESE

Daily Forecast

Date High Low Precip. Humidity
Today
Jul 6

Clear
104 °F
83 °F
0%
14%
Thursday
Jul 7

Clear
106 °F
80 °F
0%
9%
Friday
Jul 8

Clouds
108 °F
83 °F
0%
13%
Saturday
Jul 9

Clear
111 °F
86 °F
0%
11%
Sunday
Jul 10

Clear
112 °F
88 °F
0%
10%
Monday
Jul 11

Clear
113 °F
89 °F
4%
14%
Tuesday
Jul 12

Clouds
113 °F
90 °F
10%
14%
Wednesday
Jul 13

Rain
111 °F
88 °F
36%
18%
Thursday
Jul 14

Rain
110 °F
89 °F
24%
20%
Friday
Jul 15

Clear
112 °F
90 °F
0%
20%
Saturday
Jul 16

Rain
110 °F
91 °F
22%
23%
Sunday
Jul 17

Rain
103 °F
86 °F
99%
34%
Monday
Jul 18

Rain
103 °F
85 °F
63%
34%
Tuesday
Jul 19

Clouds
109 °F
90 °F
0%
22%
Wednesday
Jul 20

Clouds
110 °F
93 °F
0%
19%
Thursday
Jul 21

Clouds
101 °F
93 °F
0%
28%

Temperature 8-14 Day Outlook



Precipitation 8-14 Day Outlook






About Us
Contact Us
Site Map
Search Site
Advertise With Us
   
Mead.USLakes.info
THE LAKE MEAD WEBSITE

Copyright 2022, Lakes Online
Privacy    |    Legal